リニア彗星

C/2004 X3 ( LINEAR )

English version
Home page
Updated on January 7, 2006

---------------------------------------------------------------------

・ プロフィール

発見日 2004年12月15日
発見光度 20.1等
発見者 Lincoln Laboratory Near-Earth Asteroid Research project

・ 軌道要素

The following orbital elements are taken from MPC 54698:

Epoch 2005 May 30.0 TT = JDT 2453520.5
T 2005 June 17.2459 TT                                  MPC
q   4.402200             (2000.0)            P               Q
z  -0.001405       Peri.  202.1347      -0.9031086      +0.3184420
 +/-0.000007       Node   343.0450      +0.3445222      +0.1368813
e   1.006185       Incl.   81.0624      -0.2563189      -0.9380076
From 222 observations 2004 Dec. 15-2005 July 3, mean residual 0".6.

・ 星図

・ 光度変化

        m1 = 8.5 + 5 logΔ + 10.0 log r

---------------------------------------------------------------------

軌道要素はMPCのEphemerides and Orbital Elementsに掲載されたものです。
星図は StellaNavigator Ver.2.0 for Windows (アストロアーツ 編著 / アスキー出版局刊) で作成したものです。
光度グラフはComet for Windowsで作成したものです。

---------------------------------------------------------------------

Copyright(C) Seiichi Yoshida (comet@aerith.net). All rights reserved.